TimeAEST,TemperatureF,Dew PointF,Humidity,Sea Level PressureIn,VisibilityMPH,Wind Direction,Wind SpeedMPH,Gust SpeedMPH,PrecipitationIn,Events,Conditions,WindDirDegrees,DateUTC
12:00 AM,76,73,89,29.65,19,North,2.3,,,,Partly Cloudy,0,2012-01-25 14:00:00
12:00 AM,77.0,73.4,89,29.65,6.2,North,2.3,-,N/A,,Mostly Cloudy,360,2012-01-25 14:00:00
12:30 AM,77.0,73.4,89,29.62,6.2,SSW,2.3,-,N/A,,Mostly Cloudy,200,2012-01-25 14:30:00
1:00 AM,77,73,85,29.63,,NNW,8.1,,,,,330,2012-01-25 15:00:00
1:00 AM,77.0,73.4,89,29.62,6.2,NNW,8.1,-,N/A,,Mostly Cloudy,330,2012-01-25 15:00:00
1:30 AM,77.0,71.6,83,29.62,6.2,WNW,8.1,-,N/A,,Mostly Cloudy,290,2012-01-25 15:30:00
2:00 AM,77.0,71.6,83,29.62,6.2,NW,8.1,-,N/A,,Mostly Cloudy,310,2012-01-25 16:00:00
2:30 AM,77.0,71.6,83,29.62,6.2,WSW,4.6,-,N/A,,Mostly Cloudy,250,2012-01-25 16:30:00
3:00 AM,77,72,79,29.63,19,WNW,4.6,,,Rain,Light Rain,290,2012-01-25 17:00:00
3:00 AM,77.0,71.6,83,29.62,6.2,WNW,4.6,-,N/A,Rain,Light Rain,290,2012-01-25 17:00:00
3:30 AM,78.8,71.6,78,29.62,6.2,NNW,8.1,-,N/A,Rain,Light Rain,330,2012-01-25 17:30:00
4:00 AM,79,71,69,29.65,,NW,8.1,,,,,320,2012-01-25 18:00:00
4:00 AM,78.8,69.8,74,29.62,6.2,NW,8.1,-,N/A,,Mostly Cloudy,320,2012-01-25 18:00:00
4:30 AM,78.8,71.6,78,29.65,6.2,WNW,6.9,-,N/A,,Mostly Cloudy,300,2012-01-25 18:30:00
5:00 AM,77.0,71.6,83,29.65,6.2,West,5.8,-,N/A,,Mostly Cloudy,270,2012-01-25 19:00:00
5:30 AM,77.0,71.6,83,29.65,6.2,West,5.8,-,N/A,,Mostly Cloudy,280,2012-01-25 19:30:00
6:00 AM,77,72,80,29.69,19,WNW,5.8,,,Rain,Light Rain Showers,300,2012-01-25 20:00:00
6:00 AM,77.0,71.6,83,29.68,6.2,WNW,5.8,-,N/A,,Mostly Cloudy,300,2012-01-25 20:00:00
6:30 AM,77.0,71.6,83,29.68,6.2,West,5.8,-,N/A,,Mostly Cloudy,270,2012-01-25 20:30:00
7:00 AM,78,72,76,29.73,,West,5.8,,,,,270,2012-01-25 21:00:00
7:00 AM,78.8,71.6,78,29.71,6.2,West,5.8,-,N/A,,Mostly Cloudy,270,2012-01-25 21:00:00
7:30 AM,78.8,73.4,83,29.74,6.2,West,4.6,-,N/A,,Mostly Cloudy,280,2012-01-25 21:30:00
8:00 AM,80.6,73.4,79,29.74,6.2,NNW,5.8,-,N/A,,Mostly Cloudy,330,2012-01-25 22:00:00
8:30 AM,82.4,73.4,74,29.74,6.2,WNW,5.8,-,N/A,,Mostly Cloudy,300,2012-01-25 22:30:00
9:00 AM,83,73,65,29.74,19,NW,4.6,,,,Scattered Clouds,320,2012-01-25 23:00:00
9:00 AM,82.4,73.4,74,29.74,6.2,NW,4.6,-,N/A,,Mostly Cloudy,320,2012-01-25 23:00:00
9:30 AM,84.2,71.6,66,29.71,6.2,Calm,Calm,-,N/A,,Mostly Cloudy,0,2012-01-25 23:30:00
10:00 AM,85,73,60,29.73,,Calm,Calm,,,,,,2012-01-26 00:00:00
10:00 AM,84.2,73.4,70,29.71,6.2,Calm,Calm,-,N/A,,Mostly Cloudy,0,2012-01-26 00:00:00
10:30 AM,86.0,75.2,70,29.71,6.2,NNW,5.8,-,N/A,,Mostly Cloudy,340,2012-01-26 00:30:00
11:00 AM,87.8,75.2,66,29.68,6.2,North,8.1,-,N/A,,Mostly Cloudy,10,2012-01-26 01:00:00
11:30 AM,86.0,73.4,66,29.68,6.2,North,10.4,-,N/A,,Mostly Cloudy,350,2012-01-26 01:30:00
12:00 PM,87,75,60,29.68,19,North,10.4,,,,Partly Cloudy,0,2012-01-26 02:00:00
12:00 PM,86.0,75.2,70,29.68,6.2,North,10.4,-,N/A,,Mostly Cloudy,350,2012-01-26 02:00:00
12:30 PM,86.0,73.4,66,29.65,6.2,North,9.2,-,N/A,,Mostly Cloudy,10,2012-01-26 02:30:00
1:00 PM,85,74,63,29.67,,North,9.2,,,,,0,2012-01-26 03:00:00
1:00 PM,86.0,75.2,70,29.65,6.2,North,9.2,-,N/A,,Mostly Cloudy,360,2012-01-26 03:00:00
1:30 PM,86.0,75.2,70,29.65,6.2,North,8.1,-,N/A,,Mostly Cloudy,360,2012-01-26 03:30:00
2:00 PM,86.0,75.2,70,29.65,6.2,North,6.9,-,N/A,,Mostly Cloudy,360,2012-01-26 04:00:00
2:30 PM,86.0,75.2,70,29.65,6.2,North,8.1,-,N/A,,Mostly Cloudy,350,2012-01-26 04:30:00
3:00 PM,85,75,66,29.64,19,North,9.2,,,,Partly Cloudy,0,2012-01-26 05:00:00
3:00 PM,84.2,75.2,74,29.62,6.2,North,9.2,-,N/A,,Mostly Cloudy,360,2012-01-26 05:00:00
3:30 PM,84.2,75.2,74,29.62,6.2,North,8.1,-,N/A,,Mostly Cloudy,350,2012-01-26 05:30:00
4:00 PM,82,77,79,29.66,,NW,10.4,,,,,310,2012-01-26 06:00:00
4:00 PM,82.4,77.0,84,29.65,3.1,NW,10.4,-,N/A,Rain-Thunderstorm,Light Thunderstorms and Rain,310,2012-01-26 06:00:00
4:30 PM,78.8,77.0,94,29.65,6.2,WNW,6.9,-,N/A,Rain,Light Rain Showers,300,2012-01-26 06:30:00
4:45 PM,77.0,77.0,100,29.65,6.2,WNW,5.8,-,N/A,Rain,Light Rain,290,2012-01-26 06:45:00
5:00 PM,78.8,77.0,94,29.65,6.2,West,5.8,-,N/A,,Mostly Cloudy,280,2012-01-26 07:00:00
5:30 PM,78.8,77.0,94,29.65,6.2,WSW,1.2,-,N/A,,Mostly Cloudy,250,2012-01-26 07:30:00
6:00 PM,79,77,93,29.68,19,WNW,3.5,,,,Partly Cloudy,290,2012-01-26 08:00:00
6:00 PM,78.8,77.0,94,29.68,6.2,WNW,3.5,-,N/A,,Overcast,290,2012-01-26 08:00:00
6:30 PM,78.8,77.0,94,29.68,6.2,Calm,Calm,-,N/A,,Overcast,0,2012-01-26 08:30:00
7:00 PM,78,77,94,29.70,,Calm,Calm,,,,,,2012-01-26 09:00:00
7:00 PM,78.8,77.0,94,29.68,6.2,Calm,Calm,-,N/A,,Overcast,0,2012-01-26 09:00:00
7:30 PM,78.8,77.0,94,29.68,6.2,West,1.2,-,N/A,,Overcast,280,2012-01-26 09:30:00
8:00 PM,78.8,77.0,94,29.71,6.2,West,4.6,-,N/A,,Mostly Cloudy,280,2012-01-26 10:00:00
8:30 PM,78.8,77.0,94,29.71,6.2,WNW,3.5,-,N/A,,Overcast,300,2012-01-26 10:30:00
9:00 PM,78,76,92,29.72,16,WSW,1.2,,,,Partly Cloudy,250,2012-01-26 11:00:00
9:00 PM,78.8,77.0,94,29.71,6.2,WSW,1.2,-,N/A,,Mostly Cloudy,250,2012-01-26 11:00:00
9:30 PM,78.8,73.4,83,29.71,6.2,NW,4.6,-,N/A,,Mostly Cloudy,310,2012-01-26 11:30:00
10:00 PM,79,72,74,29.75,,NW,6.9,,,,,320,2012-01-26 12:00:00
10:00 PM,78.8,71.6,78,29.74,6.2,NW,6.9,-,N/A,,Mostly Cloudy,320,2012-01-26 12:00:00
10:30 PM,78.8,71.6,78,29.74,6.2,West,6.9,-,N/A,,Mostly Cloudy,270,2012-01-26 12:30:00
11:00 PM,77.0,73.4,89,29.74,6.2,WNW,4.6,-,N/A,,Mostly Cloudy,300,2012-01-26 13:00:00
11:30 PM,78.8,73.4,83,29.71,6.2,WNW,4.6,-,N/A,,Mostly Cloudy,300,2012-01-26 13:30:00